Total_Precipitation_Accumulation
3.86 3.97 4.09 4.32 4.03 4.10 4.59 4.80 4.69 5.00 5.07 4.76 4.49 4.23 3.97 3.61 3.39 3.40 3.52 3.53 3.41 3.54 3.94 4.18 4.06 3.96 3.76 3.49 3.38 3.30 3.24 3.07 2.90 2.60 2.37 2.47 2.72 2.64 2.29 2.08 2.06 1.88 1.81
4.16 4.37 4.31 4.42 4.13 3.93 4.18 4.46 4.56 5.33 5.27 5.14 4.64 4.32 4.29 4.23 3.88 3.72 3.65 3.84 3.67 3.48 3.70 4.18 4.34 4.32 4.22 3.94 3.69 3.48 3.40 3.30 2.97 2.53 2.32 2.31 2.50 2.65 2.55 2.40 2.22 2.05 1.85
4.10 4.37 4.58 4.55 4.25 4.01 4.27 4.50 4.76 5.08 4.88 4.80 4.62 4.43 4.32 4.21 3.92 3.81 3.99 4.15 3.86 3.68 3.63 3.89 4.29 4.50 4.62 4.68 4.40 3.95 3.48 3.24 3.03 2.74 2.52 2.41 2.51 2.62 2.65 2.61 2.46 2.25 2.06
4.11 4.41 4.34 4.21 4.30 4.26 4.55 4.80 4.91 5.00 4.95 4.79 4.56 4.16 3.98 4.07 3.68 3.59 3.69 3.79 3.81 3.45 3.69 4.09 4.39 4.49 4.73 4.93 4.99 4.94 4.32 3.66 3.38 3.07 2.76 2.61 2.63 2.60 2.57 2.58 2.53 2.33 2.15
3.89 4.18 4.20 4.30 4.36 4.37 4.49 4.10 4.71 4.78 4.87 4.73 4.10 3.93 3.64 3.64 3.56 3.22 3.26 3.19 3.37 3.45 3.46 3.59 3.97 4.12 4.72 5.23 5.53 5.69 5.51 4.79 4.03 3.53 3.25 2.99 2.85 2.59 2.45 2.45 2.46 2.35 2.19
3.83 4.11 4.14 4.28 4.30 4.43 4.51 4.50 4.78 4.71 4.58 4.52 3.66 3.54 3.47 3.19 3.12 3.13 2.97 2.97 3.19 3.09 3.20 3.47 3.78 3.52 4.04 4.64 4.89 5.36 5.77 5.52 4.82 4.21 3.90 3.65 3.42 3.06 2.71 2.58 2.61 2.57 2.35
3.93 4.33 4.20 4.60 4.48 4.27 4.26 4.36 4.62 4.55 4.31 4.38 4.33 3.80 3.19 2.85 2.90 2.82 2.92 3.04 2.88 3.00 3.39 3.77 3.88 3.68 3.39 3.47 3.57 4.01 4.88 5.59 5.55 5.11 4.72 4.30 4.10 3.86 3.17 2.82 2.74 2.64 2.53
3.86 3.88 4.31 4.25 4.28 4.41 4.34 4.31 4.50 4.36 3.99 4.22 4.51 4.46 3.70 3.47 2.95 2.40 2.72 2.90 2.97 3.26 3.41 3.47 3.86 4.02 3.65 3.73 3.12 3.10 3.92 5.12 5.77 5.79 5.31 4.83 4.54 4.32 3.87 3.62 3.27 2.89 2.69
3.47 3.68 3.86 4.03 4.38 4.23 4.26 4.38 4.29 4.25 4.01 3.99 4.22 4.62 4.15 3.64 3.09 2.54 2.39 2.67 3.08 3.41 3.41 3.47 3.57 3.77 3.85 4.09 3.90 3.45 3.36 3.80 4.78 5.73 5.80 5.29 4.70 4.27 4.14 4.19 3.99 3.49 3.12
3.44 3.47 3.60 3.79 4.00 3.79 3.86 3.57 3.68 4.02 4.21 3.94 4.07 4.04 3.96 3.86 3.74 3.13 2.68 2.64 2.93 3.10 3.29 3.29 3.42 3.64 3.86 4.24 4.34 3.86 3.47 3.28 3.63 4.78 5.75 5.79 5.24 4.69 4.59 4.71 4.81 4.43 3.80
3.42 3.35 3.37 3.44 3.51 3.40 3.48 3.42 3.67 3.66 3.69 3.72 3.85 3.92 4.04 4.05 3.83 3.60 3.19 3.09 2.97 2.69 2.74 2.97 3.20 3.40 3.60 4.00 4.28 3.97 3.82 3.47 3.33 3.58 4.32 5.05 5.25 5.07 4.84 4.93 5.29 5.36 4.95
3.24 3.14 3.09 3.16 3.18 3.18 3.25 3.31 3.47 3.39 3.47 3.62 3.71 3.75 3.96 4.00 4.05 4.01 3.44 3.20 2.95 2.43 2.39 2.40 2.63 2.95 3.38 3.72 3.65 3.76 3.60 3.34 3.15 3.10 3.20 3.66 4.16 4.51 4.70 4.98 5.45 5.98 6.08
2.72 2.85 2.78 2.95 2.96 2.98 3.01 3.15 3.28 3.29 3.44 3.61 3.55 3.65 3.75 3.68 3.83 3.97 3.90 3.37 2.98 2.54 2.59 2.51 2.50 2.72 2.84 3.24 3.38 3.33 3.04 2.90 2.71 2.64 2.59 2.76 3.05 3.39 3.73 4.20 4.83 5.48 5.96
2.32 2.55 2.72 2.77 2.76 2.80 2.90 3.23 3.05 3.13 3.40 3.45 3.32 3.80 3.68 3.41 3.58 3.68 3.88 4.02 3.56 3.02 3.01 2.83 2.66 2.62 2.70 2.93 3.00 2.97 2.69 2.59 2.31 2.18 2.12 2.12 2.15 2.31 2.59 2.97 3.50 3.99 4.48
2.30 2.38 2.46 2.60 2.70 2.87 3.12 3.38 3.22 3.33 3.63 3.49 3.59 3.88 3.70 3.52 3.56 3.53 3.84 4.21 4.31 3.74 3.29 3.02 2.79 2.66 2.60 2.57 2.69 2.49 2.48 2.50 2.25 2.06 1.93 1.83 1.84 1.82 1.93 2.10 2.36 2.69 2.97
2.39 2.26 2.22 2.34 2.45 2.59 2.82 3.04 2.97 3.16 3.46 3.42 3.47 3.60 3.57 3.46 3.71 3.72 3.83 4.15 4.45 4.34 3.55 3.18 3.04 2.67 2.74 2.32 2.53 2.38 2.36 2.35 2.09 1.93 1.82 1.80 1.79 1.79 1.79 1.81 1.91 2.12 2.37
2.37 2.26 2.24 2.29 2.31 2.28 2.39 2.59 2.61 2.89 2.99 3.08 3.02 3.08 3.01 3.30 3.53 3.52 3.73 3.91 4.19 4.48 3.93 3.49 3.48 3.20 3.18 2.92 2.69 2.47 2.26 2.16 1.93 1.88 1.74 1.69 1.65 1.66 1.70 1.65 1.66 1.76 1.95
2.15 2.23 2.27 2.19 2.10 2.18 2.35 2.40 2.46 2.70 2.81 2.78 2.78 2.91 2.73 2.99 3.15 3.24 3.50 3.66 3.93 4.40 4.19 3.77 3.65 3.51 3.40 3.23 3.04 2.80 2.28 1.97 1.93 2.01 1.82 1.67 1.63 1.61 1.63 1.56 1.52 1.51 1.57
1.98 2.07 2.12 2.05 2.02 2.18 2.45 2.56 2.69 2.75 2.64 2.61 2.59 2.52 2.46 2.70 2.76 3.00 3.22 3.24 3.46 3.89 4.00 3.61 3.39 3.61 3.43 3.25 3.34 2.94 2.62 2.54 1.97 1.93 1.86 1.69 1.63 1.54 1.54 1.54 1.50 1.42 1.43
1.94 2.00 2.09 2.22 2.29 2.33 2.32 2.37 2.54 2.69 2.68 2.51 2.36 2.26 2.28 2.47 2.47 2.68 2.77 3.01 3.27 3.41 3.62 3.52 3.32 3.40 3.38 3.30 3.52 3.28 3.09 2.91 2.49 2.04 2.07 1.86 1.77 1.71 1.60 1.53 1.49 1.48 1.49
1.82 2.06 2.31 2.41 2.42 2.33 2.15 2.27 2.40 2.32 2.35 2.23 2.10 2.00 1.93 1.96 2.03 2.23 2.18 2.52 2.89 2.99 3.04 3.18 3.16 3.23 3.42 3.57 3.42 3.43 3.30 3.15 2.94 2.65 2.63 2.21 1.92 1.73 1.68 1.64 1.62 1.60 1.62
1.87 2.10 2.17 2.26 2.24 2.00 2.13 2.04 1.96 1.96 2.03 2.06 2.07 2.04 1.84 1.75 1.77 1.87 1.91 2.02 2.28 2.42 2.60 2.87 2.95 3.01 3.22 3.54 3.66 3.66 3.55 3.35 3.10 2.85 3.01 2.95 2.54 2.21 1.97 1.70 1.74 1.77 1.79
2.03 2.03 2.01 2.07 2.09 2.21 2.11 1.87 1.81 1.77 1.87 1.95 2.02 2.00 1.73 1.59 1.72 1.69 1.84 1.86 1.91 1.99 2.12 2.42 2.54 2.55 2.85 3.22 3.64 3.63 3.67 3.45 3.19 3.15 3.28 3.29 3.33 3.02 2.41 2.03 2.01 1.82 1.87
2.20 2.12 1.98 2.00 2.02 2.01 2.01 1.81 1.83 1.69 1.67 1.79 1.90 1.98 2.00 1.98 1.88 1.90 1.90 1.78 1.65 1.67 1.74 1.71 1.81 2.07 2.31 2.66 3.11 3.27 3.56 3.71 3.53 3.43 3.49 3.53 3.55 3.74 3.19 2.61 2.48 2.16 2.07
2.23 2.30 2.19 2.11 2.07 2.06 2.05 1.87 1.90 1.78 1.82 1.84 1.95 1.99 2.00 1.94 1.91 1.84 1.78 1.74 1.59 1.51 1.52 1.56 1.58 1.76 2.01 2.19 2.57 2.94 3.23 3.46 3.52 3.62 3.72 3.79 3.67 3.81 4.04 3.56 2.88 2.55 2.26
2.42 2.46 2.31 2.23 2.27 2.31 2.38 2.18 2.11 1.91 1.92 1.94 2.04 1.99 1.88 1.77 1.85 1.73 1.57 1.63 1.59 1.62 1.69 1.63 1.67 1.73 1.79 1.99 2.35 2.63 2.92 3.25 3.28 3.37 3.23 3.30 3.31 3.49 3.93 4.06 3.61 2.93 2.46